"Time","Value","Approval","myLocation"
"2023-05-06 00:00",23.0881002981738,"Approved","OW404"
"2023-05-06 01:00",23.0860994157852,"Approved","OW404"
"2023-05-06 02:00",23.0840985333966,"Approved","OW404"
"2023-05-06 03:00",23.0820976510079,"Approved","OW404"
"2023-05-06 04:00",23.0790967686193,"Approved","OW404"
"2023-05-06 05:00",23.0760958862307,"Approved","OW404"
"2023-05-06 06:00",23.0730950038421,"Approved","OW404"
"2023-05-06 07:00",23.0710941214534,"Approved","OW404"
"2023-05-06 08:00",23.0680932390648,"Approved","OW404"
"2023-05-06 09:00",23.0660923566762,"Approved","OW404"
"2023-05-06 10:00",23.0630914742876,"Approved","OW404"
"2023-05-06 11:00",23.0600905918989,"Approved","OW404"
"2023-05-06 12:00",23.0570897095103,"Approved","OW404"
"2023-05-06 13:00",23.0550888271217,"Approved","OW404"
"2023-05-06 14:00",23.0520879447331,"Approved","OW404"
"2023-05-06 15:00",23.0490870623444,"Approved","OW404"
"2023-05-06 16:00",23.0460861799558,"Approved","OW404"
"2023-05-06 17:00",23.0440852975672,"Approved","OW404"
"2023-05-06 18:00",23.0410844151786,"Approved","OW404"
"2023-05-06 19:00",23.0370835327899,"Approved","OW404"
"2023-05-06 20:00",23.0340826504013,"Approved","OW404"
"2023-05-06 21:00",23.0310817680127,"Approved","OW404"
"2023-05-06 22:00",23.028080885624,"Approved","OW404"
"2023-05-06 23:00",23.0250800032354,"Approved","OW404"
"2023-05-07 00:00",23.0220791208468,"Approved","OW404"
"2023-05-07 01:00",23.0200782384582,"Approved","OW404"
"2023-05-07 02:00",23.0160773560695,"Approved","OW404"
"2023-05-07 03:00",23.0120764736809,"Approved","OW404"
"2023-05-07 04:00",23.0100755912923,"Approved","OW404"
"2023-05-07 05:00",23.0070747089037,"Approved","OW404"
"2023-05-07 06:00",23.005073826515,"Approved","OW404"
"2023-05-07 07:00",23.0010729441264,"Approved","OW404"
"2023-05-07 08:00",22.9980720617378,"Approved","OW404"
"2023-05-07 09:00",22.9940711793492,"Approved","OW404"
"2023-05-07 10:00",22.9910702969605,"Approved","OW404"
"2023-05-07 11:00",22.9880694145719,"Approved","OW404"
"2023-05-07 12:00",22.9840685321833,"Approved","OW404"
"2023-05-07 13:00",22.9810676497947,"Approved","OW404"
"2023-05-07 14:00",22.978066767406,"Approved","OW404"
"2023-05-07 15:00",22.9740658850174,"Approved","OW404"
"2023-05-07 16:00",22.9700650026288,"Approved","OW404"
"2023-05-07 17:00",22.9660641202402,"Approved","OW404"
"2023-05-07 18:00",22.9630632378515,"Approved","OW404"
"2023-05-07 19:00",22.9590623554629,"Approved","OW404"
"2023-05-07 20:00",22.9550614730743,"Approved","OW404"
"2023-05-07 21:00",22.9530605906857,"Approved","OW404"
"2023-05-07 22:00",22.950059708297,"Approved","OW404"
"2023-05-07 23:00",22.9460588259084,"Approved","OW404"
"2023-05-08 00:00",22.9420579435198,"Approved","OW404"
"2023-05-08 01:00",22.9400570611311,"Approved","OW404"
"2023-05-08 02:00",22.9360561787425,"Approved","OW404"
"2023-05-08 03:00",22.9340552963539,"Approved","OW404"
"2023-05-08 04:00",22.9310544139653,"Approved","OW404"
"2023-05-08 05:00",22.9270535315766,"Approved","OW404"
"2023-05-08 06:00",22.924052649188,"Approved","OW404"
"2023-05-08 07:00",22.9200517667994,"Approved","OW404"
"2023-05-08 08:00",22.9170508844108,"Approved","OW404"
"2023-05-08 09:00",22.9140500020221,"Approved","OW404"
"2023-05-08 10:00",22.9110491196335,"Approved","OW404"
"2023-05-08 11:00",22.9080482372449,"Approved","OW404"
"2023-05-08 12:00",22.9050473548563,"Approved","OW404"
"2023-05-08 13:00",22.9010464724676,"Approved","OW404"
"2023-05-08 14:00",22.898045590079,"Approved","OW404"
"2023-05-08 15:00",22.8940447076904,"Approved","OW404"
"2023-05-08 16:00",22.8900438253018,"Approved","OW404"
"2023-05-08 17:00",22.8870429429131,"Approved","OW404"
"2023-05-08 18:00",22.8810420605245,"Approved","OW404"
"2023-05-08 19:00",22.8770411781359,"Approved","OW404"
"2023-05-08 20:00",22.8730402957473,"Approved","OW404"
"2023-05-08 21:00",22.8710394133586,"Approved","OW404"
"2023-05-08 22:00",22.87003853097,"Approved","OW404"
"2023-05-08 23:00",22.8670376485814,"Approved","OW404"
"2023-05-09 00:00",22.8630367661928,"Approved","OW404"
"2023-05-09 01:00",22.8590358838041,"Approved","OW404"
"2023-05-09 02:00",22.8560350014155,"Approved","OW404"
"2023-05-09 03:00",22.8540341190269,"Approved","OW404"
"2023-05-09 04:00",22.8520332366382,"Approved","OW404"
"2023-05-09 05:00",22.8500323542496,"Approved","OW404"
"2023-05-09 06:00",22.846031471861,"Approved","OW404"
"2023-05-09 07:00",22.8430305894724,"Approved","OW404"
"2023-05-09 08:00",22.8400297070837,"Approved","OW404"
"2023-05-09 09:00",22.8370288246951,"Approved","OW404"
"2023-05-09 10:00",22.8340279423065,"Approved","OW404"
"2023-05-09 11:00",22.8320270599179,"Approved","OW404"
"2023-05-09 12:00",22.8290261775292,"Approved","OW404"
"2023-05-09 13:00",22.8250252951406,"Approved","OW404"
"2023-05-09 14:00",22.823024412752,"Approved","OW404"
"2023-05-09 15:00",22.8190235303634,"Approved","OW404"
"2023-05-09 16:00",22.8140226479747,"Approved","OW404"
"2023-05-09 17:00",22.8110217655861,"Approved","OW404"
"2023-05-09 18:00",22.8090208831975,"Approved","OW404"
"2023-05-09 19:00",22.8020200008089,"Approved","OW404"
"2023-05-09 20:00",22.8000191184202,"Approved","OW404"
"2023-05-09 21:00",22.7960182360316,"Approved","OW404"
"2023-05-09 22:00",22.793017353643,"Approved","OW404"
"2023-05-09 23:00",22.7900164712544,"Approved","OW404"
"2023-05-10 00:00",22.7880155888657,"Approved","OW404"
"2023-05-10 01:00",22.7850147064771,"Approved","OW404"
"2023-05-10 02:00",22.7820138240885,"Approved","OW404"
"2023-05-10 03:00",22.7820129416999,"Approved","OW404"
"2023-05-10 04:00",22.7810120593112,"Approved","OW404"
"2023-05-10 05:00",22.7750224271708,"Approved","OW404"
"2023-05-10 06:00",22.7710206624097,"Approved","OW404"
"2023-05-10 07:00",22.7680188976487,"Approved","OW404"
"2023-05-10 08:00",22.7640171328877,"Approved","OW404"
"2023-05-10 09:00",22.7610153681266,"Approved","OW404"
"2023-05-10 10:00",22.7580136033656,"Approved","OW404"
"2023-05-10 11:00",22.7560118386046,"Approved","OW404"
"2023-05-10 12:00",22.7530100738435,"Approved","OW404"
"2023-05-10 13:00",22.7500083090825,"Approved","OW404"
"2023-05-10 14:00",22.7480065443215,"Approved","OW404"
"2023-05-10 15:00",22.7440047795604,"Approved","OW404"
"2023-05-10 16:00",22.7400030147994,"Approved","OW404"
"2023-05-10 17:00",22.7360012500384,"Approved","OW404"
"2023-05-10 17:36",22.7370000588259,"Approved","OW404"
"2023-05-10 18:36",22.7327430648768,"Approved","OW404"
"2023-05-10 19:00",22.7310409269464,"Approved","OW404"
"2023-05-10 20:00",22.7250926622942,"Approved","OW404"
"2023-05-10 21:00",22.7201443976421,"Approved","OW404"
"2023-05-10 22:00",22.71619613299,"Approved","OW404"
"2023-05-10 23:00",22.7122478683379,"Approved","OW404"
"2023-05-11 00:00",22.7092996036857,"Approved","OW404"
"2023-05-11 01:00",22.7043513390336,"Approved","OW404"
"2023-05-11 02:00",22.7024030743815,"Approved","OW404"
"2023-05-11 03:00",22.6994548097294,"Approved","OW404"
"2023-05-11 04:00",22.6975065450773,"Approved","OW404"
"2023-05-11 05:00",22.6952928509905,"Approved","OW404"
"2023-05-11 06:00",22.6923186907838,"Approved","OW404"
"2023-05-11 07:00",22.6893445305771,"Approved","OW404"
"2023-05-11 08:00",22.6863703703704,"Approved","OW404"
"2023-05-11 09:00",22.6833962101637,"Approved","OW404"
"2023-05-11 10:00",22.6804220499569,"Approved","OW404"
"2023-05-11 11:00",22.6774478897502,"Approved","OW404"
"2023-05-11 12:00",22.6754737295435,"Approved","OW404"
"2023-05-11 13:00",22.6724995693368,"Approved","OW404"
"2023-05-11 14:00",22.6705254091301,"Approved","OW404"
"2023-05-11 15:00",22.6675512489233,"Approved","OW404"
"2023-05-11 16:00",22.6645770887166,"Approved","OW404"
"2023-05-11 17:00",22.6616029285099,"Approved","OW404"
"2023-05-11 18:00",22.6586287683032,"Approved","OW404"
"2023-05-11 19:00",22.6556546080965,"Approved","OW404"
"2023-05-11 20:00",22.6526804478898,"Approved","OW404"
"2023-05-11 21:00",22.648706287683,"Approved","OW404"
"2023-05-11 22:00",22.6467321274763,"Approved","OW404"
"2023-05-11 23:00",22.6437579672696,"Approved","OW404"
"2023-05-12 00:00",22.6417838070629,"Approved","OW404"
"2023-05-12 01:00",22.6398096468562,"Approved","OW404"
"2023-05-12 02:00",22.6388354866494,"Approved","OW404"
"2023-05-12 03:00",22.6368613264427,"Approved","OW404"
"2023-05-12 04:00",22.634887166236,"Approved","OW404"
"2023-05-12 05:00",22.6329130060293,"Approved","OW404"
"2023-05-12 06:00",22.6309388458226,"Approved","OW404"
"2023-05-12 07:00",22.6289646856158,"Approved","OW404"
"2023-05-12 08:00",22.6269905254091,"Approved","OW404"
"2023-05-12 09:00",22.6240163652024,"Approved","OW404"
"2023-05-12 10:00",22.6210422049957,"Approved","OW404"
"2023-05-12 11:00",22.619068044789,"Approved","OW404"
"2023-05-12 12:00",22.6170938845823,"Approved","OW404"
"2023-05-12 13:00",22.6151197243755,"Approved","OW404"
"2023-05-12 14:00",22.6131455641688,"Approved","OW404"
"2023-05-12 15:00",22.6101714039621,"Approved","OW404"
"2023-05-12 16:00",22.6081972437554,"Approved","OW404"
"2023-05-12 17:00",22.6052230835487,"Approved","OW404"
"2023-05-12 18:00",22.6022489233419,"Approved","OW404"
"2023-05-12 19:00",22.5992747631352,"Approved","OW404"
"2023-05-12 20:00",22.5973006029285,"Approved","OW404"
"2023-05-12 21:00",22.5943264427218,"Approved","OW404"
"2023-05-12 22:00",22.5913522825151,"Approved","OW404"
"2023-05-12 23:00",22.5883781223084,"Approved","OW404"
"2023-05-13 00:00",22.5864039621016,"Approved","OW404"
"2023-05-13 01:00",22.5854298018949,"Approved","OW404"
"2023-05-13 02:00",22.5824556416882,"Approved","OW404"
"2023-05-13 03:00",22.5814814814815,"Approved","OW404"
"2023-05-13 04:00",22.5805073212748,"Approved","OW404"
"2023-05-13 05:00",22.578533161068,"Approved","OW404"
"2023-05-13 06:00",22.5765590008613,"Approved","OW404"
"2023-05-13 07:00",22.5745848406546,"Approved","OW404"
"2023-05-13 08:00",22.5726106804479,"Approved","OW404"
"2023-05-13 09:00",22.5706365202412,"Approved","OW404"
"2023-05-13 10:00",22.5676623600345,"Approved","OW404"
"2023-05-13 11:00",22.5666881998277,"Approved","OW404"
"2023-05-13 12:00",22.563714039621,"Approved","OW404"
"2023-05-13 13:00",22.5627398794143,"Approved","OW404"
"2023-05-13 14:00",22.5607657192076,"Approved","OW404"
"2023-05-13 15:00",22.5587915590009,"Approved","OW404"
"2023-05-13 16:00",22.5558173987941,"Approved","OW404"
"2023-05-13 17:00",22.5528432385874,"Approved","OW404"
"2023-05-13 18:00",22.5498690783807,"Approved","OW404"
"2023-05-13 19:00",22.547894918174,"Approved","OW404"
"2023-05-13 20:00",22.5449207579673,"Approved","OW404"
"2023-05-13 21:00",22.5419465977605,"Approved","OW404"
"2023-05-13 22:00",22.5399724375538,"Approved","OW404"
"2023-05-13 23:00",22.5369982773471,"Approved","OW404"
"2023-05-14 00:00",22.5340241171404,"Approved","OW404"
"2023-05-14 01:00",22.5320499569337,"Approved","OW404"
"2023-05-14 02:00",22.532075796727,"Approved","OW404"
"2023-05-14 03:00",22.5301016365202,"Approved","OW404"
"2023-05-14 04:00",22.5301274763135,"Approved","OW404"
"2023-05-14 05:00",22.5271533161068,"Approved","OW404"
"2023-05-14 06:00",22.5251791559001,"Approved","OW404"
"2023-05-14 07:00",22.5232049956934,"Approved","OW404"
"2023-05-14 08:00",22.5212308354866,"Approved","OW404"
"2023-05-14 09:00",22.5192566752799,"Approved","OW404"
"2023-05-14 10:00",22.5162825150732,"Approved","OW404"
"2023-05-14 11:00",22.5153083548665,"Approved","OW404"
"2023-05-14 12:00",22.5123341946598,"Approved","OW404"
"2023-05-14 13:00",22.5103600344531,"Approved","OW404"
"2023-05-14 14:00",22.5093858742463,"Approved","OW404"
"2023-05-14 15:00",22.5064117140396,"Approved","OW404"
"2023-05-14 16:00",22.5034375538329,"Approved","OW404"
"2023-05-14 17:00",22.5004633936262,"Approved","OW404"
"2023-05-14 18:00",22.5004892334195,"Approved","OW404"
"2023-05-14 19:00",22.4975150732127,"Approved","OW404"
"2023-05-14 20:00",22.494540913006,"Approved","OW404"
"2023-05-14 21:00",22.4925667527993,"Approved","OW404"
"2023-05-14 22:00",22.4915925925926,"Approved","OW404"
"2023-05-14 23:00",22.4896184323859,"Approved","OW404"
"2023-05-15 00:00",22.4876442721792,"Approved","OW404"
"2023-05-15 01:00",22.4846701119724,"Approved","OW404"
"2023-05-15 02:00",22.4836959517657,"Approved","OW404"
"2023-05-15 03:00",22.483721791559,"Approved","OW404"
"2023-05-15 04:00",22.4837476313523,"Approved","OW404"
"2023-05-15 05:00",22.4807734711456,"Approved","OW404"
"2023-05-15 06:00",22.4787993109388,"Approved","OW404"
"2023-05-15 07:00",22.4768251507321,"Approved","OW404"
"2023-05-15 08:00",22.4748509905254,"Approved","OW404"
"2023-05-15 09:00",22.4728768303187,"Approved","OW404"
"2023-05-15 10:00",22.471902670112,"Approved","OW404"
"2023-05-15 11:00",22.4699285099053,"Approved","OW404"
"2023-05-15 12:00",22.4679543496985,"Approved","OW404"
"2023-05-15 13:00",22.4669801894918,"Approved","OW404"
"2023-05-15 14:00",22.4660060292851,"Approved","OW404"
"2023-05-15 15:00",22.4630318690784,"Approved","OW404"
"2023-05-15 16:00",22.4610577088717,"Approved","OW404"
"2023-05-15 17:00",22.4590835486649,"Approved","OW404"
"2023-05-15 18:00",22.4571093884582,"Approved","OW404"
"2023-05-15 19:00",22.4561352282515,"Approved","OW404"
"2023-05-15 20:00",22.4531610680448,"Approved","OW404"
"2023-05-15 21:00",22.4511869078381,"Approved","OW404"
"2023-05-15 22:00",22.4482127476314,"Approved","OW404"
"2023-05-15 23:00",22.4472385874246,"Approved","OW404"
"2023-05-16 00:00",22.4472644272179,"Approved","OW404"
"2023-05-16 01:00",22.4472902670112,"Approved","OW404"
"2023-05-16 02:00",22.4453161068045,"Approved","OW404"
"2023-05-16 03:00",22.4453419465978,"Approved","OW404"
"2023-05-16 04:00",22.444367786391,"Approved","OW404"
"2023-05-16 05:00",22.4413936261843,"Approved","OW404"
"2023-05-16 06:00",22.4394194659776,"Approved","OW404"
"2023-05-16 07:00",22.4394453057709,"Approved","OW404"
"2023-05-16 08:00",22.4374711455642,"Approved","OW404"
"2023-05-16 09:00",22.4354969853574,"Approved","OW404"
"2023-05-16 10:00",22.4345228251507,"Approved","OW404"
"2023-05-16 11:00",22.432548664944,"Approved","OW404"
"2023-05-16 12:00",22.4315745047373,"Approved","OW404"
"2023-05-16 13:00",22.4316003445306,"Approved","OW404"
"2023-05-16 14:00",22.4296261843239,"Approved","OW404"
"2023-05-16 15:00",22.4286520241171,"Approved","OW404"
"2023-05-16 16:00",22.4266778639104,"Approved","OW404"
"2023-05-16 17:00",22.4257037037037,"Approved","OW404"
"2023-05-16 18:00",22.423729543497,"Approved","OW404"
"2023-05-16 19:00",22.4207553832903,"Approved","OW404"
"2023-05-16 20:00",22.4187812230835,"Approved","OW404"
"2023-05-16 21:00",22.4168070628768,"Approved","OW404"
"2023-05-16 22:00",22.4148329026701,"Approved","OW404"
"2023-05-16 23:00",22.4148587424634,"Approved","OW404"
"2023-05-17 00:00",22.4148845822567,"Approved","OW404"
"2023-05-17 01:00",22.41191042205,"Approved","OW404"
"2023-05-17 02:00",22.4129362618432,"Approved","OW404"
"2023-05-17 03:00",22.4119621016365,"Approved","OW404"
"2023-05-17 04:00",22.4089879414298,"Approved","OW404"
"2023-05-17 05:00",22.4090137812231,"Approved","OW404"
"2023-05-17 06:00",22.4070396210164,"Approved","OW404"
"2023-05-17 07:00",22.4060654608096,"Approved","OW404"
"2023-05-17 08:00",22.4040913006029,"Approved","OW404"
"2023-05-17 09:00",22.4021171403962,"Approved","OW404"
"2023-05-17 10:00",22.4011429801895,"Approved","OW404"
"2023-05-17 11:00",22.4001688199828,"Approved","OW404"
"2023-05-17 12:00",22.3991946597761,"Approved","OW404"
"2023-05-17 13:00",22.3982204995693,"Approved","OW404"
"2023-05-17 14:00",22.3962463393626,"Approved","OW404"
"2023-05-17 15:00",22.3962721791559,"Approved","OW404"
"2023-05-17 16:00",22.3932980189492,"Approved","OW404"
"2023-05-17 17:00",22.3923238587425,"Approved","OW404"
"2023-05-17 18:00",22.3903496985357,"Approved","OW404"
"2023-05-17 19:00",22.387375538329,"Approved","OW404"
"2023-05-17 20:00",22.3864013781223,"Approved","OW404"
"2023-05-17 21:00",22.3844272179156,"Approved","OW404"
"2023-05-17 22:00",22.3824530577089,"Approved","OW404"
"2023-05-17 23:00",22.3814788975022,"Approved","OW404"
"2023-05-18 00:00",22.3805047372954,"Approved","OW404"
"2023-05-18 01:00",22.3795305770887,"Approved","OW404"
"2023-05-18 02:00",22.379556416882,"Approved","OW404"
"2023-05-18 03:00",22.3795822566753,"Approved","OW404"
"2023-05-18 04:00",22.3796080964686,"Approved","OW404"
"2023-05-18 05:00",22.3776339362618,"Approved","OW404"
"2023-05-18 06:00",22.3766597760551,"Approved","OW404"
"2023-05-18 07:00",22.3756856158484,"Approved","OW404"
"2023-05-18 08:00",22.3747114556417,"Approved","OW404"
"2023-05-18 09:00",22.373737295435,"Approved","OW404"
"2023-05-18 10:00",22.3737631352283,"Approved","OW404"
"2023-05-18 11:00",22.3727889750215,"Approved","OW404"
"2023-05-18 12:00",22.3708148148148,"Approved","OW404"
"2023-05-18 13:00",22.3698406546081,"Approved","OW404"
"2023-05-18 14:00",22.3688664944014,"Approved","OW404"
"2023-05-18 15:00",22.3688923341947,"Approved","OW404"
"2023-05-18 16:00",22.3669181739879,"Approved","OW404"
"2023-05-18 17:00",22.3649440137812,"Approved","OW404"
"2023-05-18 18:00",22.3639698535745,"Approved","OW404"
"2023-05-18 19:00",22.3629956933678,"Approved","OW404"
"2023-05-18 20:00",22.3620215331611,"Approved","OW404"
"2023-05-18 21:00",22.3610473729544,"Approved","OW404"
"2023-05-18 22:00",22.3610732127476,"Approved","OW404"
"2023-05-18 23:00",22.3590990525409,"Approved","OW404"
"2023-05-19 00:00",22.3571248923342,"Approved","OW404"
"2023-05-19 01:00",22.3571507321275,"Approved","OW404"
"2023-05-19 02:00",22.3581765719208,"Approved","OW404"
"2023-05-19 03:00",22.358202411714,"Approved","OW404"
"2023-05-19 04:00",22.3582282515073,"Approved","OW404"
"2023-05-19 05:00",22.3572540913006,"Approved","OW404"
"2023-05-19 06:00",22.3542799310939,"Approved","OW404"
"2023-05-19 07:00",22.3543057708872,"Approved","OW404"
"2023-05-19 08:00",22.3523316106804,"Approved","OW404"
"2023-05-19 09:00",22.3523574504737,"Approved","OW404"
"2023-05-19 10:00",22.351383290267,"Approved","OW404"
"2023-05-19 11:00",22.3504091300603,"Approved","OW404"
"2023-05-19 12:00",22.3494349698536,"Approved","OW404"
"2023-05-19 13:00",22.3484608096469,"Approved","OW404"
"2023-05-19 14:00",22.3484866494401,"Approved","OW404"
"2023-05-19 15:00",22.3465124892334,"Approved","OW404"
"2023-05-19 16:00",22.3455383290267,"Approved","OW404"
"2023-05-19 17:00",22.34356416882,"Approved","OW404"
"2023-05-19 18:00",22.3425900086133,"Approved","OW404"
"2023-05-19 19:00",22.3416158484065,"Approved","OW404"
"2023-05-19 20:00",22.3396416881998,"Approved","OW404"
"2023-05-19 21:00",22.3386675279931,"Approved","OW404"
"2023-05-19 22:00",22.3376933677864,"Approved","OW404"
"2023-05-19 23:00",22.3357192075797,"Approved","OW404"
"2023-05-20 00:00",22.334745047373,"Approved","OW404"
"2023-05-20 01:00",22.3347708871662,"Approved","OW404"
"2023-05-20 02:00",22.3347967269595,"Approved","OW404"
"2023-05-20 03:00",22.3358225667528,"Approved","OW404"
"2023-05-20 04:00",22.3358484065461,"Approved","OW404"
"2023-05-20 05:00",22.3358742463394,"Approved","OW404"
"2023-05-20 06:00",22.3329000861326,"Approved","OW404"
"2023-05-20 07:00",22.3329259259259,"Approved","OW404"
"2023-05-20 08:00",22.3309517657192,"Approved","OW404"
"2023-05-20 09:00",22.3309776055125,"Approved","OW404"
"2023-05-20 10:00",22.3300034453058,"Approved","OW404"
"2023-05-20 11:00",22.3290292850991,"Approved","OW404"
"2023-05-20 12:00",22.3270551248923,"Approved","OW404"
"2023-05-20 13:00",22.3280809646856,"Approved","OW404"
"2023-05-20 14:00",22.3271068044789,"Approved","OW404"
"2023-05-20 15:00",22.3261326442722,"Approved","OW404"
"2023-05-20 16:00",22.3251584840655,"Approved","OW404"
"2023-05-20 17:00",22.3231843238587,"Approved","OW404"
"2023-05-20 18:00",22.322210163652,"Approved","OW404"
"2023-05-20 19:00",22.3202360034453,"Approved","OW404"
"2023-05-20 20:00",22.3182618432386,"Approved","OW404"
"2023-05-20 21:00",22.3172876830319,"Approved","OW404"
"2023-05-20 22:00",22.3203135228251,"Approved","OW404"
"2023-05-20 23:00",22.3153393626184,"Approved","OW404"
"2023-05-21 00:00",22.3163652024117,"Approved","OW404"
"2023-05-21 01:00",22.314391042205,"Approved","OW404"
"2023-05-21 02:00",22.3144168819983,"Approved","OW404"
"2023-05-21 03:00",22.3154427217916,"Approved","OW404"
"2023-05-21 04:00",22.3164685615848,"Approved","OW404"
"2023-05-21 05:00",22.3154944013781,"Approved","OW404"
"2023-05-21 06:00",22.3145202411714,"Approved","OW404"
"2023-05-21 07:00",22.3125460809647,"Approved","OW404"
"2023-05-21 08:00",22.309571920758,"Approved","OW404"
"2023-05-21 09:00",22.3095977605512,"Approved","OW404"
"2023-05-21 10:00",22.3096236003445,"Approved","OW404"
"2023-05-21 11:00",22.3096494401378,"Approved","OW404"
"2023-05-21 12:00",22.3106752799311,"Approved","OW404"
"2023-05-21 13:00",22.3107011197244,"Approved","OW404"
"2023-05-21 14:00",22.3047269595177,"Approved","OW404"
"2023-05-21 15:00",22.3047527993109,"Approved","OW404"
"2023-05-21 16:00",22.3037786391042,"Approved","OW404"
"2023-05-21 17:00",22.3038044788975,"Approved","OW404"
"2023-05-21 18:00",22.3018303186908,"Approved","OW404"
"2023-05-21 19:00",22.3028561584841,"Approved","OW404"
"2023-05-21 20:00",22.3048819982773,"Approved","OW404"
"2023-05-21 21:00",22.3009078380706,"Approved","OW404"
"2023-05-21 22:00",22.3009336778639,"Approved","OW404"
"2023-05-21 23:00",22.2939595176572,"Approved","OW404"
"2023-05-22 00:00",22.2959853574505,"Approved","OW404"
"2023-05-22 01:00",22.2940111972438,"Approved","OW404"
"2023-05-22 02:00",22.295037037037,"Approved","OW404"
"2023-05-22 03:00",22.2950628768303,"Approved","OW404"
"2023-05-22 04:00",22.2930887166236,"Approved","OW404"
"2023-05-22 05:00",22.2931145564169,"Approved","OW404"
"2023-05-22 06:00",22.2921403962102,"Approved","OW404"
"2023-05-22 07:00",22.2921662360034,"Approved","OW404"
"2023-05-22 08:00",22.2921920757967,"Approved","OW404"
"2023-05-22 09:00",22.29121791559,"Approved","OW404"
"2023-05-22 10:00",22.2912437553833,"Approved","OW404"
"2023-05-22 11:00",22.2902695951766,"Approved","OW404"
"2023-05-22 12:00",22.2892954349699,"Approved","OW404"
"2023-05-22 13:00",22.2883212747631,"Approved","OW404"
"2023-05-22 14:00",22.2873471145564,"Approved","OW404"
"2023-05-22 15:00",22.2873729543497,"Approved","OW404"
"2023-05-22 16:00",22.286398794143,"Approved","OW404"
"2023-05-22 17:00",22.2844246339363,"Approved","OW404"
"2023-05-22 18:00",22.2854504737295,"Approved","OW404"
"2023-05-22 19:00",22.2844763135228,"Approved","OW404"
"2023-05-22 20:00",22.2835021533161,"Approved","OW404"
"2023-05-22 21:00",22.2825279931094,"Approved","OW404"
"2023-05-22 22:00",22.2835538329027,"Approved","OW404"
"2023-05-22 23:00",22.2825796726959,"Approved","OW404"
"2023-05-23 00:00",22.2806055124892,"Approved","OW404"
"2023-05-23 01:00",22.2796313522825,"Approved","OW404"
"2023-05-23 02:00",22.2786571920758,"Approved","OW404"
"2023-05-23 03:00",22.2786830318691,"Approved","OW404"
"2023-05-23 04:00",22.2787088716624,"Approved","OW404"
"2023-05-23 05:00",22.2777347114556,"Approved","OW404"
"2023-05-23 06:00",22.2767605512489,"Approved","OW404"
"2023-05-23 07:00",22.2767863910422,"Approved","OW404"
"2023-05-23 08:00",22.2748122308355,"Approved","OW404"
"2023-05-23 09:00",22.2738380706288,"Approved","OW404"
"2023-05-23 10:00",22.273863910422,"Approved","OW404"
"2023-05-23 11:00",22.2728897502153,"Approved","OW404"
"2023-05-23 12:00",22.2719155900086,"Approved","OW404"
"2023-05-23 13:00",22.2709414298019,"Approved","OW404"
"2023-05-23 14:00",22.2699672695952,"Approved","OW404"
"2023-05-23 15:00",22.2689931093885,"Approved","OW404"
"2023-05-23 16:00",22.2680189491817,"Approved","OW404"
"2023-05-23 17:00",22.268044788975,"Approved","OW404"
"2023-05-23 18:00",22.2660706287683,"Approved","OW404"